Hourly Data Report for July 04, 2021

POND INLET A
NUNAVUT
Current Station Operator: NAVCAN

72°41'22.000" N
77°58'08.000" W
61.60 m
2403206
71095
YIO

Download Data

Hourly Data (July 2021)
Hourly Data Report for July 4, 2021
TIME
LST
Temp Definition
°C
Dew Point Definition
°C
Rel Hum Definition
%
Precip. Amount Definition
mm

Wind Dir Definition
10's deg

Wind Spd Definition
km/h
Visibility Definition
km
Stn Press Definition
kPa
Hmdx Definition


Wind Chill Definition


Weather Definition


00:00 1.9 -0.3 86 0.0 22 4 16.1 100.52     LegendNANA
01:00 1.1 -0.1 92 0.0 5 4 16.1 100.54     LegendNANA
02:00 2.1 -0.2 85 0.0 LegendMM 4 16.1 100.54     LegendNANA
03:00 1.8 -0.3 86 0.0 27 5 16.1 100.57     LegendNANA
04:00 2.4 -0.2 83 0.0 21 8 16.1 100.57     LegendNANA
05:00 2.7 0.0 83 0.0 24 8 16.1 100.59     LegendNANA
06:00 3.9 -1.0 70 0.0 LegendMM 4 16.1 100.60     LegendNANA
07:00 3.2 -1.0 74 0.0 32 5 16.1 100.62     LegendNANA
08:00 4.2 -1.9 65 0.0 34 5 16.1 100.61     LegendNANA
09:00 4.3 -1.7 65 0.0 1 5 16.1 100.61     LegendNANA
10:00 2.1 0.0 86 0.0 25 11 16.1 100.62     LegendNANA
11:00 3.0 0.4 83 0.0 26 11 16.1 100.62     LegendNANA
12:00 2.9 -0.2 80 0.0 24 8 16.1 100.62     LegendNANA
13:00 3.8 -1.1 70 0.0 27 8 16.1 100.60     LegendNANA
14:00 3.8 -0.6 73 0.0 26 11 16.1 100.59     LegendNANA
15:00 3.9 -0.8 72 0.0 26 9 16.1 100.57     LegendNANA
16:00 3.8 -1.2 70 0.0 24 15 16.1 100.56     LegendNANA
17:00 3.0 -0.8 76 0.0 22 17 16.1 100.56     LegendNANA
18:00 1.7 -0.4 86 0.0 25 15 16.1 100.55     LegendNANA
19:00 1.9 0.9 93 0.0 24 13 16.1 100.56     Rain
20:00 2.3 0.9 91 0.8 23 17 16.1 100.54     Rain
21:00 2.0 1.1 94 0.2 22 11 16.1 100.52     Rain
22:00 1.4 0.7 95 0.2 25 9 16.1 100.48     Rain
23:00 1.4 0.8 96 0.0 20 9 16.1 100.46     Rain

Notes on Data Quality.

Legend

  • E = Estimated
  • M = Missing
  • NA = Not Available*
  • [empty] = Indicates an unobserved value
Date modified: